N314RS KATY-KOPF

Flight info

Callsign N314RS
Flight time N/A
Altitude 41000
Route UFFDA DSM Q19 STL J45 PLESS/N0485F450 J45 LAJUG HONID CUURT1
Aircraft C750/M-SBDE3FGHRWXY/S

Departure

Time 2026-05-06 01:09
Airport Watertown Regional Airport (KATY)

Arrival

Time N/A
Airport Miami-Opa Locka Executive Airport (KOPF)
Time Latitude Longitude Altitude Speed Heading
2026-05-06 00:46 44.92016 -97.16003 1749 ft 0 kts 158°
2026-05-06 01:04 44.92013 -97.16001 1749 ft 2 kts 165°
2026-05-06 01:04 44.91994 -97.16012 1745 ft 4 kts 212°
2026-05-06 01:04 44.91961 -97.16024 1748 ft 6 kts 157°
2026-05-06 01:04 44.91930 -97.15968 1748 ft 9 kts 125°
2026-05-06 01:05 44.91885 -97.15877 1748 ft 13 kts 124°
2026-05-06 01:05 44.91831 -97.15765 1747 ft 14 kts 124°
2026-05-06 01:05 44.91779 -97.15660 1746 ft 13 kts 125°
2026-05-06 01:05 44.91731 -97.15563 1746 ft 12 kts 125°
2026-05-06 01:06 44.91701 -97.15502 1745 ft 11 kts 124°
2026-05-06 01:06 44.91660 -97.15417 1745 ft 10 kts 124°
2026-05-06 01:06 44.91620 -97.15336 1742 ft 10 kts 125°
2026-05-06 01:06 44.91579 -97.15252 1742 ft 11 kts 126°
2026-05-06 01:07 44.91524 -97.15140 1738 ft 10 kts 123°
2026-05-06 01:07 44.91482 -97.15054 1744 ft 12 kts 124°
2026-05-06 01:07 44.91433 -97.14954 1743 ft 12 kts 124°
2026-05-06 01:07 44.91385 -97.14856 1736 ft 12 kts 124°
2026-05-06 01:08 44.91355 -97.14794 1737 ft 11 kts 125°
2026-05-06 01:08 44.91310 -97.14704 1740 ft 11 kts 126°
2026-05-06 01:08 44.91247 -97.14664 1737 ft 10 kts 199°
2026-05-06 01:08 44.91190 -97.14716 1738 ft 9 kts 221°
2026-05-06 01:09 44.91170 -97.14784 1738 ft 8 kts 296°
2026-05-06 01:09 44.91329 -97.15108 1740 ft 88 kts 304°
2026-05-06 01:09 44.91812 -97.16086 1800 ft 139 kts 308°
2026-05-06 01:09 44.92556 -97.17580 2622 ft 143 kts 305°
2026-05-06 01:10 44.92901 -97.18386 3093 ft 146 kts 302°
2026-05-06 01:10 44.93432 -97.19697 3485 ft 167 kts 302°
2026-05-06 01:10 44.93712 -97.21462 3557 ft 213 kts 265°
2026-05-06 01:10 44.92910 -97.23420 3749 ft 256 kts 225°
2026-05-06 01:11 44.91201 -97.24347 4507 ft 273 kts 185°
2026-05-06 01:11 44.89377 -97.23677 5429 ft 278 kts 149°
2026-05-06 01:11 44.88106 -97.21660 6275 ft 280 kts 114°
2026-05-06 01:11 44.87707 -97.18999 7184 ft 278 kts 93°
2026-05-06 01:12 44.87604 -97.16242 8055 ft 285 kts 90°
2026-05-06 01:12 44.87529 -97.13423 8793 ft 292 kts 90°
2026-05-06 01:12 44.87460 -97.10522 9493 ft 299 kts 90°
2026-05-06 01:12 44.87390 -97.07610 10135 ft 304 kts 90°
2026-05-06 01:13 44.87213 -97.04538 10245 ft 329 kts 99°
2026-05-06 01:13 44.86370 -97.01499 10722 ft 334 kts 120°
2026-05-06 01:13 44.85100 -96.98775 11435 ft 334 kts 125°
2026-05-06 01:13 44.83820 -96.96019 11999 ft 338 kts 121°
2026-05-06 01:14 44.81635 -96.90086 13235 ft 345 kts 117°
2026-05-06 01:14 44.80479 -96.87111 13857 ft 348 kts 119°
2026-05-06 01:14 44.79272 -96.84133 14480 ft 351 kts 120°
2026-05-06 01:15 44.78102 -96.81151 15176 ft 354 kts 118°
2026-05-06 01:15 44.76928 -96.78086 15846 ft 358 kts 119°
2026-05-06 01:15 44.75728 -96.75004 16548 ft 361 kts 120°
2026-05-06 01:15 44.74501 -96.71894 17253 ft 365 kts 120°
2026-05-06 01:16 44.73267 -96.68753 17977 ft 369 kts 120°
2026-05-06 01:16 44.72024 -96.65570 18641 ft 374 kts 120°
2026-05-06 01:16 44.70763 -96.62354 19257 ft 378 kts 121°
2026-05-06 01:16 44.69480 -96.59096 19875 ft 383 kts 121°
2026-05-06 01:17 44.68183 -96.55804 20487 ft 388 kts 121°
2026-05-06 01:17 44.66869 -96.52466 21093 ft 393 kts 121°
2026-05-06 01:17 44.65552 -96.49126 21673 ft 399 kts 122°
2026-05-06 01:17 44.64199 -96.45703 22272 ft 404 kts 122°
2026-05-06 01:18 44.62823 -96.42224 22845 ft 410 kts 122°
2026-05-06 01:18 44.61427 -96.38699 23420 ft 416 kts 123°
2026-05-06 01:18 44.60012 -96.35127 23903 ft 422 kts 123°
2026-05-06 01:18 44.58570 -96.31498 24340 ft 429 kts 124°
2026-05-06 01:19 44.57108 -96.27819 24794 ft 435 kts 124°
2026-05-06 01:19 44.55623 -96.24088 25247 ft 441 kts 125°
2026-05-06 01:19 44.54138 -96.20362 25702 ft 447 kts 126°
2026-05-06 01:19 44.52611 -96.16536 26159 ft 453 kts 126°
2026-05-06 01:20 44.50965 -96.12769 26547 ft 452 kts 134°
2026-05-06 01:20 44.48936 -96.09444 27054 ft 445 kts 144°
2026-05-06 01:20 44.46621 -96.06638 27576 ft 436 kts 155°
2026-05-06 01:20 44.44099 -96.04364 28121 ft 430 kts 162°
2026-05-06 01:21 44.41522 -96.02211 28707 ft 433 kts 162°
2026-05-06 01:21 44.38936 -96.00018 29278 ft 437 kts 162°
2026-05-06 01:21 44.36327 -95.97805 29846 ft 439 kts 163°
2026-05-06 01:21 44.33736 -95.95628 30349 ft 442 kts 163°
2026-05-06 01:22 44.31090 -95.93414 30788 ft 446 kts 162°
2026-05-06 01:22 44.28419 -95.91171 31208 ft 450 kts 162°
2026-05-06 01:22 44.25724 -95.88903 31640 ft 454 kts 161°
2026-05-06 01:22 44.23002 -95.86620 32030 ft 458 kts 161°
2026-05-06 01:23 44.20257 -95.84326 32432 ft 462 kts 161°
2026-05-06 01:23 44.17486 -95.82008 32837 ft 467 kts 160°
2026-05-06 01:23 44.14692 -95.79673 33227 ft 471 kts 160°
2026-05-06 01:23 44.11869 -95.77316 33624 ft 475 kts 160°
2026-05-06 01:24 44.09021 -95.74943 33992 ft 479 kts 159°
2026-05-06 01:24 44.06186 -95.72583 34321 ft 483 kts 159°
2026-05-06 01:24 44.03303 -95.70180 34776 ft 483 kts 159°
2026-05-06 01:24 44.00429 -95.67786 35323 ft 481 kts 159°
2026-05-06 01:25 43.97559 -95.65408 35813 ft 480 kts 159°
2026-05-06 01:25 43.94694 -95.63039 36323 ft 479 kts 159°
2026-05-06 01:25 43.91836 -95.60670 36853 ft 478 kts 159°
2026-05-06 01:25 43.88982 -95.58307 37381 ft 477 kts 159°
2026-05-06 01:26 43.86136 -95.55958 37902 ft 476 kts 159°
2026-05-06 01:26 43.83331 -95.53645 38411 ft 475 kts 159°
2026-05-06 01:26 43.80490 -95.51303 38868 ft 475 kts 159°
2026-05-06 01:26 43.77653 -95.48967 39265 ft 475 kts 159°
2026-05-06 01:27 43.74814 -95.46634 39642 ft 475 kts 159°
2026-05-06 01:27 43.71973 -95.44301 40028 ft 475 kts 158°
2026-05-06 01:27 43.69133 -95.41970 40413 ft 475 kts 158°
2026-05-06 01:27 43.66297 -95.39645 40794 ft 473 kts 158°
2026-05-06 01:28 43.63459 -95.37322 41007 ft 478 kts 158°
2026-05-06 01:28 43.60560 -95.34963 40991 ft 488 kts 158°
2026-05-06 01:28 43.54640 -95.30125 41015 ft 507 kts 157°
2026-05-06 01:29 43.48470 -95.25099 41013 ft 521 kts 157°
2026-05-06 01:29 43.42234 -95.20023 41002 ft 521 kts 157°
2026-05-06 01:30 43.35988 -95.14967 40983 ft 521 kts 158°
2026-05-06 01:30 43.29784 -95.09947 40978 ft 521 kts 158°
2026-05-06 01:31 43.23533 -95.04907 40974 ft 521 kts 158°
2026-05-06 01:31 43.17276 -94.99872 40975 ft 522 kts 158°
2026-05-06 01:32 43.11019 -94.94849 40975 ft 522 kts 158°
2026-05-06 01:32 43.04755 -94.89833 40977 ft 522 kts 158°